Regional Weather Roundup
Issued by NWS Burlington, VT

Home | Current Version | Previous Version | Text Only | Print | Product List | Glossary On
Versions: 1 2 3 4 5 6 7 8 9 10 11 12 13 14 15 16 17 18 19 20 21 22 23 24 25 26 27 28 29 30 31 32 33 34 35 36 37 38 39 40 41 42 43 44 45 46 47 48 49 50
000
ASUS41 KBTV 030910
RWRBTV
VERMONT REGIONAL WEATHER ROUNDUP
NATIONAL WEATHER SERVICE BURLINGTON VT
500 AM EDT TUE MAY 03 2016

NOTE: "FAIR" INDICATES FEW OR NO CLOUDS BELOW 12,000 FEET WITH NO
SIGNIFICANT WEATHER AND/OR OBSTRUCTIONS TO VISIBILITY.

* THESE REPORTS ARE NOT UNDER NWS QUALITY CONTROL AND/OR DO NOT
  REPORT WEATHER SUCH AS PRECIPITATION AND FOG.

VTZ001>019-031000-
_____VERMONT_____


CITY           SKY/WX    TMP DP  RH WIND       PRES   REMARKS
BURLINGTON     CLOUDY    44  40  85 N5        29.94S
MONTPELIER     CLOUDY    41  39  93 NW3       29.94S
MORRISVILLE    CLOUDY    42  39  89 N6        29.93S
ST. JOHNSBURY*   N/A     44  41  89 MISG      29.89S
LYNDONVILLE*   CLOUDY    41  40  95 W3        29.91S
MIDDLEBURY*    CLOUDY    43  43 100 CALM      29.93S
RUTLAND*       CLOUDY    43  39  87 NW3       29.93S
SPRINGFIELD    CLOUDY    43  41  93 CALM      29.91S
HIGHGATE*      CLOUDY    42  40  93 CALM      29.94F
NEWPORT*       CLOUDY    40  38  92 NW6       29.92S
BENNINGTON     CLOUDY    45  43  93 CALM      29.89F
SUTTON*          N/A     39 N/A N/A MISG        N/A

_____LAKE CHAMPLAIN_____


CITY           SKY/WX    TMP DP  RH WIND       PRES   REMARKS
COLCHESTER RF*   N/A     43  43 100 N9          N/A
DIAMOND ISL*     N/A     45  43  93 N10         N/A

$$

NYZ007-026>031-035-052-083-087-031000-
_____NORTHERN NEW YORK_____


CITY           SKY/WX    TMP DP  RH WIND       PRES   REMARKS
SARANAC LAKE   CLOUDY    39  35  86 CALM      29.90F
MASSENA        FOG       33  31  92 CALM      29.97F VSB 1/2
OGDENSBURG*    FOG       36  36 100 CALM      29.96F VSB 1/4
WATERTOWN      FOG       37  37 100 CALM      29.96S VSB 1/4
FT DRUM        FOG       36  36  99 CALM      29.94S VSB 1/4
ALBANY         CLOUDY    46  43  89 N7        29.91F
GLENS FALLS    CLOUDY    46  42  86 N5        29.93S

$$
NHZ002-005-011-031000-
_____NEW HAMPSHIRE_____


CITY           SKY/WX    TMP DP  RH WIND       PRES   REMARKS
LEBANON        CLOUDY    44  42  93 CALM      29.92S FOG
KEENE          CLOUDY    45  43  93 NW5       29.91R VSB 3/4
MT WASHINGTON  CLOUDY    27  23  86 W35         N/A  WCI   9
PLYMOUTH       CLOUDY    45  42  90 W3        29.90S
WHITEFIELD     CLOUDY    42  40  92 CALM      29.89S

$$

_____REGIONAL QUEBEC LOCATIONS_____


CITY           SKY/WX    TMP DP  RH WIND       PRES   REMARKS
MONTREAL       PTCLDY    36  36 100 NW2       29.96S
QUEBEC CITY    LGT RAIN  39  37  93 N3        29.94F FOG
SHERBROOKE     FOG       39  39 100 VRB2      29.90S VSB 3/4

_____REGIONAL ONTARIO LOCATIONS_____


CITY           SKY/WX    TMP DP  RH WIND       PRES   REMARKS
OTTAWA         FOG       32  32 100 S2        29.96F VSB 1/2

______KEY______
VSB  - VISIBILITY IN MILES
WCI  - WIND CHILL INDEX
HX   - HEAT INDEX
$$
NNNN




USA.gov is the U.S. government's official web portal to all federal, state and local government web resources and services.